Location: Vinland
(47.7731°N, 122.6974°W)
Time: 21:55:17
(UTC+00:00)

Vanguard 1 Rocket - Visible Passes

Search period start: 21 March 2023 00:00
Search period end: 31 March 2023 00:00
Orbit: 652 x 4223 km, 34.3° (Epoch: 21 March)

Date Brightness Start Highest point End Pass type
(mag) Time Alt. Az. Time Alt. Az. Time Alt. Az.
21 Mar 11.3 06:07:08 10° SSW 06:10:47 15° S 06:10:47 15° S visible
21 Mar10.608:59:58ESE08:59:58ESE08:28:09SWvisible
21 Mar 9.0 11:17:13 33° S 11:17:13 33° S 11:22:12 10° SE visible
21 Mar 9.4 13:35:57 10° WSW 13:39:25 13° SW 13:42:14 10° S visible
22 Mar 11.2 04:56:25 10° S 05:04:18 17° SSE 05:04:18 17° SSE visible
22 Mar 11.4 07:20:02 10° SW 07:21:40 13° SW 07:21:40 13° SW visible
22 Mar 9.7 10:09:43 22° SE 10:09:43 22° SE 10:12:09 10° ESE visible
22 Mar 9.1 12:26:57 22° SW 12:28:57 24° SSW 12:34:05 10° SSE visible
23 Mar 11.2 03:49:58 10° SSE 03:56:49 12° SE 03:57:54 12° SE visible
23 Mar 11.1 06:06:47 10° SSW 06:15:16 22° S 06:15:16 22° S visible
23 Mar10.509:02:13ESE09:02:13ESE08:32:38WSWvisible
23 Mar 9.1 11:19:28 33° S 11:19:28 33° S 11:24:43 10° SE visible
23 Mar 9.6 13:39:52 10° WSW 13:41:26 11° SW 13:42:51 10° SSW visible
24 Mar 10.9 04:54:56 10° S 05:08:57 24° SSE 05:08:57 24° SSE visible
24 Mar 11.2 07:20:45 10° SW 07:26:19 19° SW 07:26:19 19° SW visible
24 Mar 9.7 10:12:01 24° SE 10:12:01 24° SE 10:14:47 10° ESE visible
24 Mar 9.3 12:29:16 20° SW 12:31:05 21° SW 12:36:11 10° SSE visible
25 Mar 11.0 03:45:29 10° S 03:58:36 17° SE 04:02:41 16° SE visible
25 Mar 10.7 06:06:56 10° SSW 06:20:04 30° S 06:20:04 30° S visible
25 Mar 10.5 08:36:36 10° WSW 09:04:36 - ESE 08:37:27 11° WSW visible
25 Mar 9.2 11:21:51 31° S 11:21:51 31° S 11:27:07 10° SE visible
26 Mar 10.6 04:54:20 10° SSW 05:13:35 30° SSE 05:13:50 30° SSE visible
26 Mar 10.9 07:21:43 10° SW 07:31:14 27° SW 07:31:14 27° SW visible
26 Mar 9.7 10:14:30 24° SE 10:14:30 24° SE 10:17:19 10° SE visible
26 Mar 9.5 12:31:46 18° SW 12:33:04 19° SW 12:38:01 10° S visible
27 Mar 10.8 03:43:31 10° S 04:00:18 23° SE 04:07:38 19° ESE visible
27 Mar 10.4 06:07:29 10° SW 06:25:01 39° S 06:25:01 39° S visible
27 Mar 10.5 08:38:03 10° WSW 09:07:11 - ESE 08:42:24 18° WSW visible
27 Mar 9.4 11:24:28 28° S 11:24:28 28° S 11:29:23 10° SSE visible
28 Mar 11.2 02:36:01 10° SSE 02:47:14 15° SE 02:57:26 10° ESE visible
28 Mar 10.4 04:54:19 10° SSW 05:15:25 35° SSE 05:18:47 34° SE visible
28 Mar 10.6 07:22:53 10° WSW 07:36:10 36° SW 07:36:10 36° SW visible
28 Mar 9.8 10:17:15 22° SE 10:17:15 22° SE 10:19:47 10° SE visible
28 Mar 9.7 12:34:32 16° SW 12:34:56 16° SW 12:39:27 10° SSW visible
29 Mar 10.7 03:42:39 10° SSW 04:01:56 28° SE 04:12:30 19° ESE visible
29 Mar 10.2 06:08:19 10° SW 06:29:53 46° S 06:29:53 46° S visible
29 Mar 10.6 08:39:37 10° WSW 09:10:07 - ESE 08:47:15 24° WSW visible
29 Mar 9.6 11:27:25 24° S 11:27:25 24° S 11:31:28 10° SSE visible
30 Mar 10.3 04:54:44 10° SW 05:17:13 41° SSE 05:23:30 35° SE visible
30 Mar 10.3 07:24:14 10° WSW 07:40:52 43° SW 07:40:52 43° SW visible
30 Mar 10.0 09:56:58 10° W 10:20:24 17° SSE 10:22:07 10° SE visible
30 Mar 9.9 12:37:42 12° SW 12:37:42 12° SW 12:40:11 10° SSW visible
